User: anonymous   Login
Location: Dentlein
(49.1477°N, 10.4231°E)
Time: 08:09:15
(UTC+00:00)
Language:

Cosmos 1709 Rocket - Orbit

View from above orbital plane
View from above orbital plane
View from above satellite
View from above satellite

Ground track
Ground track

The orbit data is extracted from the following two-line orbital elements,

1 16369U 85116B   24202.81449032  .00000252  00000-0  23827-3 0  9991
2 16369  82.9348 221.4484 0037700 108.2685  64.2200 13.77041506938179
Epoch (UTC): 20 July 2024 19:32:51
Eccentricity: 0.0037700
inclination: 82.9348°
perigee height: 946 km
apogee height: 1002 km
right ascension of ascending node: 221.4484°
argument of perigee: 108.2685°
revolutions per day: 13.77041506
mean anomaly at epoch: 64.2200°
orbit number at epoch: 93817

The dashed part of the orbit path shows where the satellite is in the earth's shadow,  

DLR